User: anonymous   Login
Location: Albany
(35.0000°S, 118.0000°E)
Time: 01:33:47
(UTC-05:00)
Language:

JAS-1B - Orbit

View from above orbital plane
View from above orbital plane
View from above satellite
View from above satellite

Ground track
Ground track

The orbit data is extracted from the following two-line orbital elements,

1 20480U 90013C   17324.85967864 -.00000026  00000-0  10166-4 0  9994
2 20480  99.0738  68.8499 0540810  36.3727 327.2887 12.83417111301822
Epoch (UTC): 20 November 2017 20:37:56
Eccentricity: 0.0540810
inclination: 99.0738°
perigee height: 911 km
apogee height: 1744 km
right ascension of ascending node: 68.8499°
argument of perigee: 36.3727°
revolutions per day: 12.83417111
mean anomaly at epoch: 327.2887°
orbit number at epoch: 30182

The dashed part of the orbit path shows where the satellite is in the earth's shadow,  

DLR